Tracking 28790 objects as of 19-Apr-2024
HD Live streaming from Space Station
objects crossing your sky now

SL-16 R/B

Track SL-16 R/B now!
10-day predictions
SL-16 R/B is classified as:


NORAD ID: 19650
Int'l Code: 1988-102B
Perigee: 835.3 km
Apogee: 857.1 km
Inclination: 71.0 °
Period: 101.7 minutes
Semi major axis: 7217 km
RCS: 12.1863 m2 (large)
Launch date: November 23, 1988
Source: Commonwealth of Independent States (former USSR) (CIS)
Launch site: TYURATAM MISSILE AND SPACE COMPLEX (TTMTR)

Note: This is a ROCKET BODY
Your satellite tracking list
Your tracking list is empty




NASA's NSSDC Master Catalog

Two Line Element Set (TLE):
1 19650U 88102B   24109.55006742  .00000300  00000-0  17636-3 0  9994
2 19650  70.9985 163.4246 0015088 333.4578  26.5771 14.15957128829473
Source of the keplerian elements: AFSPC